Location: Unspecified
(0.0000°N, 0.0000°E)
Time: 08:34:40
(UTC+00:00)

deb Delta 104 - Pass Details

Date: 12 March 2026
Orbit: 1430 x 1579 km, 102.3° (Epoch: 17 April)

Event Time Altitude Azimuth Distance (km) Brightness Sun altitude
Rises 04:18:50 0° 30° (NNE) 4,754 ? -27.7°
Reaches altitude 10° 04:21:52 10° 36° (NE) 3,771 ? -26.9°
Maximum altitude 04:30:18 48° 107° (ESE) 1,976 ? -24.8°
Drops below altitude 10° 04:38:36 10° 178° (S) 3,724 ? -22.8°
Sets 04:41:32 0° 183° (S) 4,691 ? -22.0°
